Terug naar catalogus

WEOS

ActiefWetenschapSSO
NORAD 27599·PAYLOAD·🇯🇵 Japan

Gelanceerd Dec 14, 2002 vanaf Tanegashima Space Center

Loading…

Volgende Passages (komende 24 uur)

TLE

VersSource: Space-Track

Epoch: Sep 14, 2026, 09:03 UTC

1 27599U 02056C   26257.37712448  .00000115  00000-0  61181-4 0  9991
2 27599  98.8277 226.4635 0010603  55.9923 304.2265 14.30873099239107

Volg WEOS in realtime met AllMySat

Download on the App Store